Total_Precipitation_Accumulation
0.65 0.79 0.84 0.79 0.79 0.84 0.89 0.94 0.99 0.96 0.95 0.90 0.80 0.74 0.72 0.71 0.63 0.54 0.42 0.38 0.37 0.35 0.34 0.34 0.36 0.42 0.46 0.51 0.57 0.67 0.74 0.81 0.93 1.09 1.34 1.61 1.81 2.02
0.84 0.92 0.96 0.98 0.96 0.88 0.92 0.97 1.00 1.06 1.02 0.85 0.78 0.79 0.71 0.55 0.53 0.47 0.40 0.42 0.39 0.36 0.33 0.31 0.30 0.35 0.39 0.40 0.38 0.41 0.46 0.50 0.55 0.60 0.71 0.86 1.03 1.25
0.98 1.09 1.13 1.17 1.16 1.04 0.98 0.95 0.96 1.05 0.99 0.83 0.78 0.80 0.69 0.53 0.46 0.44 0.41 0.40 0.36 0.37 0.33 0.29 0.28 0.29 0.32 0.35 0.34 0.33 0.34 0.36 0.40 0.44 0.48 0.54 0.59 0.67
1.04 1.23 1.31 1.26 1.15 1.06 1.05 0.99 0.98 1.07 1.02 0.92 0.90 0.85 0.77 0.67 0.57 0.51 0.43 0.40 0.38 0.39 0.35 0.31 0.28 0.27 0.27 0.27 0.27 0.27 0.28 0.30 0.31 0.33 0.35 0.39 0.40 0.42
1.05 1.10 1.13 1.19 1.15 1.07 1.01 0.97 0.96 1.07 1.07 0.97 1.03 1.02 0.92 0.80 0.67 0.56 0.48 0.46 0.39 0.37 0.38 0.35 0.33 0.27 0.25 0.25 0.25 0.25 0.24 0.23 0.25 0.27 0.30 0.34 0.34 0.34
0.91 0.95 0.98 1.01 1.07 1.12 1.06 1.00 1.01 1.04 1.06 1.05 1.08 1.21 1.12 0.95 0.78 0.64 0.55 0.51 0.46 0.35 0.35 0.39 0.37 0.32 0.28 0.25 0.24 0.23 0.25 0.23 0.22 0.24 0.24 0.26 0.31 0.36
0.66 0.67 0.77 0.94 1.03 1.08 1.01 0.99 1.05 1.05 1.05 1.10 1.13 1.26 1.28 1.13 0.90 0.69 0.60 0.57 0.54 0.47 0.40 0.33 0.31 0.28 0.26 0.27 0.27 0.25 0.22 0.22 0.22 0.20 0.21 0.24 0.28 0.39
0.52 0.51 0.52 0.63 0.79 0.90 0.90 0.89 0.94 1.00 1.05 1.08 1.15 1.23 1.30 1.21 1.04 0.88 0.73 0.62 0.58 0.55 0.56 0.49 0.38 0.32 0.27 0.22 0.25 0.26 0.25 0.23 0.21 0.20 0.19 0.19 0.23 0.33
0.48 0.48 0.39 0.38 0.54 0.66 0.75 0.78 0.77 0.77 0.86 1.02 1.14 1.15 1.27 1.33 1.26 1.05 0.94 0.82 0.64 0.60 0.65 0.63 0.54 0.43 0.32 0.29 0.33 0.28 0.27 0.27 0.26 0.26 0.23 0.18 0.17 0.21
0.44 0.45 0.45 0.45 0.46 0.52 0.64 0.72 0.75 0.72 0.70 0.77 0.92 1.10 1.27 1.43 1.42 1.29 1.19 1.04 0.85 0.74 0.72 0.69 0.62 0.53 0.43 0.36 0.36 0.32 0.29 0.28 0.27 0.33 0.41 0.42 0.29 0.24
0.50 0.51 0.51 0.48 0.45 0.40 0.48 0.55 0.60 0.69 0.67 0.68 0.78 0.98 1.16 1.31 1.47 1.41 1.28 1.10 0.90 0.76 0.70 0.63 0.58 0.59 0.54 0.44 0.38 0.37 0.32 0.29 0.28 0.31 0.45 0.70 0.77 0.60
0.71 0.68 0.54 0.45 0.39 0.34 0.40 0.48 0.50 0.53 0.62 0.68 0.72 0.82 0.97 1.09 1.24 1.24 1.10 1.03 0.87 0.73 0.62 0.58 0.52 0.56 0.60 0.52 0.43 0.37 0.34 0.34 0.34 0.38 0.52 0.84 0.99 0.87
0.75 0.72 0.66 0.50 0.37 0.32 0.33 0.41 0.44 0.52 0.61 0.67 0.78 0.90 1.06 1.17 1.17 1.14 1.08 0.94 0.86 0.66 0.52 0.58 0.54 0.50 0.49 0.46 0.43 0.41 0.37 0.33 0.33 0.36 0.46 0.72 0.97 0.95
0.85 0.80 0.75 0.59 0.42 0.37 0.32 0.31 0.33 0.37 0.52 0.60 0.66 0.79 0.94 1.10 1.19 1.24 1.22 1.07 0.89 0.76 0.68 0.67 0.60 0.54 0.47 0.40 0.39 0.40 0.43 0.41 0.39 0.37 0.38 0.54 0.68 0.93
0.93 0.94 0.82 0.67 0.55 0.46 0.44 0.42 0.38 0.37 0.50 0.60 0.61 0.66 0.74 0.89 1.17 1.39 1.49 1.41 1.14 0.88 0.78 0.72 0.64 0.59 0.57 0.44 0.36 0.35 0.39 0.44 0.42 0.42 0.43 0.46 0.56 0.73
1.00 1.02 0.90 0.82 0.72 0.61 0.57 0.52 0.46 0.44 0.49 0.58 0.62 0.68 0.79 0.93 1.11 1.31 1.50 1.53 1.37 1.00 0.83 0.77 0.70 0.69 0.65 0.55 0.45 0.36 0.33 0.36 0.40 0.43 0.50 0.54 0.63 0.72
1.10 1.20 1.15 1.06 0.98 0.88 0.80 0.74 0.69 0.63 0.57 0.60 0.73 0.79 0.87 0.91 1.00 1.14 1.35 1.46 1.32 1.00 0.80 0.79 0.82 0.83 0.77 0.73 0.60 0.43 0.37 0.32 0.33 0.41 0.51 0.54 0.59 0.63
0.99 1.16 1.15 1.07 1.04 1.02 0.99 0.93 0.88 0.82 0.77 0.76 0.81 0.87 0.90 0.94 1.00 1.10 1.22 1.30 1.26 1.06 0.88 0.77 0.85 0.91 0.85 0.75 0.60 0.48 0.40 0.36 0.37 0.47 0.53 0.50 0.48 0.52
0.81 0.99 1.01 1.00 1.02 1.06 1.04 0.96 0.88 0.89 0.93 0.91 0.87 0.91 0.97 0.99 1.03 1.10 1.15 1.23 1.26 1.20 1.05 0.91 0.87 0.87 0.75 0.57 0.47 0.46 0.46 0.44 0.49 0.52 0.54 0.51 0.44 0.42
0.73 0.86 0.92 0.95 0.99 1.05 1.03 1.02 0.98 1.01 1.04 1.00 0.97 0.98 1.06 1.08 1.06 1.07 1.14 1.17 1.22 1.25 1.21 1.05 0.90 0.81 0.71 0.59 0.52 0.45 0.42 0.46 0.52 0.53 0.53 0.57 0.53 0.52
0.80 0.86 0.90 0.91 0.94 1.02 1.04 1.05 1.06 1.10 1.09 1.10 1.10 1.10 1.16 1.21 1.12 1.07 1.13 1.19 1.16 1.19 1.14 1.00 0.90 0.93 0.95 0.91 0.69 0.49 0.47 0.46 0.48 0.53 0.58 0.63 0.60 0.61
0.86 0.86 0.90 0.92 0.95 0.98 1.02 1.03 1.06 1.11 1.11 1.11 1.16 1.19 1.19 1.20 1.13 1.10 1.09 1.14 1.09 1.05 1.06 1.10 1.19 1.21 1.09 0.94 0.70 0.58 0.58 0.55 0.54 0.54 0.52 0.52 0.52 0.50
0.88 0.88 0.90 0.88 0.89 0.93 0.96 0.98 1.07 1.11 1.11 1.11 1.15 1.20 1.21 1.18 1.13 1.12 1.09 1.10 1.13 1.14 1.20 1.26 1.34 1.28 1.10 0.95 0.79 0.70 0.67 0.67 0.63 0.58 0.51 0.46 0.38 0.34